This demonstration page uses our WeatherBlox Daily Observations layout. Learn more.

Left ArrowRight Arrow

38.20091, -84.87328

Hourly Observations for September 25, 2022

Temp ( °F °C ) Dew Point ( °F °C ) Humidity (%) Winds ( mph kmh ) Pressure ( in mb ) Visibility ( mi km ) Precip ( " mm )
12:53 am 00:53 Clear 62 16.7 57 13.9 84 84 SSW 5 7 29.85 1011 10 16 0.00 0.00
1:53 am 01:53 Clear 60 15.6 56 13.3 86 86 SW 3 6 29.85 1011 10 16 0.00 0.00
2:53 am 02:53 Clear 60 15.6 57 13.9 90 90 SW 6 9 29.83 1010 10 16 0.00 0.00
3:53 am 03:53 Clear 60 15.6 57 13.9 90 90 SW 3 6 29.81 1010 10 16 0.00 0.00
4:53 am 04:53 Clear 61 16.1 58 14.4 90 90 SSW 5 7 29.80 1009 10 16 0.00 0.00
5:53 am 05:53 Clear 64 17.8 59 15 84 84 SSW 9 15 29.78 1008 10 16 0.00 0.00
6:53 am 06:53 Clear 64 17.8 59 15 84 84 SW 10 17 29.78 1008 10 16 0.00 0.00
7:53 am 07:53 Sunny 65 18.3 60 15.6 84 84 SW 10 17 29.78 1009 10 16 0.00 0.00
8:53 am 08:53 Mostly Sunny 66 18.9 62 16.7 87 87 W 8 13 29.83 1010 10 16 0.00 0.00
9:53 am 09:53 Mostly Cloudy 67 19.4 60 15.6 79 79 W 6 9 29.83 1010 10 16 0.00 0.00
10:53 am 10:53 Cloudy with Light Rain 64 17.8 59 15 84 84 undefined N/A 29.80 1009 4 6 0.06 1.52
11:53 am 11:53 Sunny 67 19.4 60 15.6 79 79 W 5 7 29.82 1010 10 16 0.01 0.25
12:53 pm 12:53 Mostly Cloudy 70 21.1 55 12.8 59 59 W 8 13 29.81 1010 10 16 0.00 0.00
1:53 pm 13:53 Sunny 74 23.3 55 12.8 52 52 WSW 14 22 29.80 1009 10 16 0.00 0.00
2:53 pm 14:53 Sunny 76 24.4 53 11.7 45 45 WNW 13 20 29.79 1009 10 16 0.00 0.00
3:53 pm 15:53 Sunny 76 24.4 52 11.1 43 43 W 13 20 29.78 1009 10 16 0.00 0.00
4:53 pm 16:53 Sunny 76 24.4 52 11.1 43 43 W 10 17 29.78 1008 10 16 0.00 0.00
5:53 pm 17:53 Partly Cloudy 75 23.9 50 10 41 41 W 10 17 29.78 1009 10 16 0.00 0.00
6:53 pm 18:53 Partly Cloudy 72 22.2 50 10 46 46 WNW 7 11 29.80 1009 10 16 0.00 0.00
7:53 pm 19:53 Mostly Cloudy 69 20.6 50 10 51 51 WNW 7 11 29.82 1010 10 16 0.00 0.00
8:53 pm 20:53 Clear 65 18.3 50 10 58 58 W 3 6 29.83 1010 10 16 0.00 0.00
9:53 pm 21:53 Clear 62 16.7 50 10 65 65 WSW 3 6 29.84 1011 10 16 0.00 0.00
10:53 pm 22:53 Clear 58 14.4 50 10 75 75 W 3 6 29.85 1011 10 16 0.00 0.00
11:53 pm 23:53 Mostly Clear 56 13.3 51 10.6 84 84 W 3 6 29.86 1011 10 16 0.00 0.00

Powered by AerisWeather